STARLINK-2613 (48353 NORAD) Tracking and Keplerian Element Data

This shows tracking and keplerian element data for the satellite.

Feedback or suggestion? Click here.




ElementValue
Catalog48353
NameSTARLINK-2613
Epoch Orbit1386
Epoch Day211.11577551
Epoch Year2021
RAAN359.4691
Inclination53.0579
Eccentricity0.000138
Argument of Perigee129.966
Mean Anonmoly230.1451
Mean Motion15.06397876
Decay Rate-7E-07
L11 48353U 21038A 21211.11577551 -.00000070 00000-0 14171-4 0 9992
L22 48353 53.0579 359.4691 0001380 129.9660 230.1451 15.06397876 13862

Live tracking and technical data element details for STARLINK-2613 (NORAD 48353). STARLINK-2613 can be tracked NOW for your location showing map with azimuth and elevation plus other details from your city location.

Track the satellite on the map from your city or location and see movement details for azimuth, elevation, latitude, longitude, range, height, and movement on the map or in text.







IsCatalogInMostPopularTable: catalog: 48353, numindb: 33
Update: records affected: 1



GetName: 48353 STARLINK-2613

Hit Count: updated at: Sat, 31 Jul 2021 14:22:30 GMT